Location: Colebrook
(42.0017°N, 73.0973°W)
Time: 03:38:24
(UTC-04:00)

deb Explorer IX - Visible Passes

Search period start: 21 October 2021 00:00
Search period end: 31 October 2021 00:00
Orbit: 546 x 1088 km, 38.8° (Epoch: 20 October)

Date Brightness Start Highest point End Pass type
(mag) Time Alt. Az. Time Alt. Az. Time Alt. Az.
21 Oct ? 04:07:30 28° SE 04:07:30 28° SE 04:11:30 10° E visible
21 Oct ? 05:48:43 20° WSW 05:53:01 56° S 05:58:20 10° E visible
22 Oct ? 03:44:26 22° ESE 03:44:26 22° ESE 03:47:04 10° E visible
22 Oct ? 05:25:38 32° SW 05:28:27 57° S 05:33:57 10° E visible
23 Oct ? 03:21:18 16° ESE 03:21:18 16° ESE 03:22:37 10° E visible
23 Oct ? 05:02:30 48° SSW 05:03:51 58° S 05:09:32 10° E visible
23 Oct ? 06:44:34 10° W 06:50:41 62° S 06:55:54 10° ESE visible
24 Oct ? 04:39:19 58° SSE 04:39:19 58° SSE 04:45:05 10° E visible
24 Oct ? 06:20:31 13° W 06:26:07 63° S 06:31:30 10° ESE visible
25 Oct ? 04:16:05 47° ESE 04:16:05 47° ESE 04:20:37 10° E visible
25 Oct ? 05:57:17 22° W 06:01:32 64° S 06:07:04 10° ESE visible
26 Oct ? 03:52:51 32° ESE 03:52:51 32° ESE 03:56:06 10° E visible
26 Oct ? 05:34:03 34° WSW 05:36:54 65° S 05:42:37 10° ESE visible
27 Oct ? 03:29:36 21° E 03:29:36 21° E 03:31:34 10° E visible
27 Oct ? 05:10:48 51° WSW 05:12:14 65° S 05:18:09 10° ESE visible
28 Oct ? 03:06:21 13° E 03:06:21 13° E 03:07:00 10° E visible
28 Oct ? 04:47:34 66° S 04:47:34 66° S 04:53:38 10° ESE visible
28 Oct ? 06:28:45 12° W 06:34:14 39° SSW 06:39:29 10° SE visible
29 Oct ? 04:24:19 52° SE 04:24:19 52° SE 04:29:06 10° ESE visible
29 Oct ? 06:05:31 20° W 06:09:35 40° SSW 06:15:00 10° SE visible
30 Oct ? 04:01:07 34° ESE 04:01:07 34° ESE 04:04:31 10° ESE visible
30 Oct ? 05:42:19 29° WSW 05:44:53 41° SSW 05:50:30 10° SE visible
